SCP
0 0 0 0 0 0 0 0 0 0 0 0 0 0 0 0 0 0 0 0 0 0 0 0 1 1 0 0 0 1 1 1 1 1 1 1 1 1 1 0 0 0 0 0 0 0 0 0 0
0 0 0 0 0 0 0 0 0 0 0 0 0 0 0 0 0 0 0 0 0 0 0 1 1 1 1 0 0 0 1 1 1 1 1 1 1 1 1 1 0 0 0 0 0 0 0 0 0
0 0 0 0 0 0 0 0 0 0 0 0 0 0 0 0 0 0 0 0 0 0 0 1 1 1 1 1 1 1 1 1 1 1 1 1 1 1 0 0 0 0 0 0 0 0 0 0 0
0 0 0 0 0 0 0 0 0 0 0 0 0 0 0 0 0 0 0 0 0 0 0 1 1 1 1 1 1 1 1 1 1 1 0 0 0 0 0 0 0 0 0 0 0 0 0 0 0
0 0 0 0 0 0 0 0 0 0 0 0 0 0 0 0 0 0 0 0 0 0 0 1 1 1 1 1 1 1 1 1 1 1 1 0 0 0 0 0 0 0 0 0 0 0 0 0 0
0 0 0 0 0 0 0 0 0 0 0 0 0 0 0 0 0 0 0 0 0 0 0 1 1 1 1 1 1 1 1 1 1 1 1 1 1 0 0 0 0 0 0 0 0 0 0 0 0
0 0 0 0 0 0 0 0 0 0 0 0 0 0 0 0 0 0 0 0 0 0 0 0 1 1 1 1 1 1 1 1 1 1 1 1 1 0 0 0 0 0 0 0 0 0 0 0 0
0 0 0 0 0 0 0 0 0 0 0 0 0 0 0 0 0 0 0 0 0 0 0 0 0 0 0 0 0 1 1 1 1 1 1 0 0 0 0 0 0 0 0 0 0 0 0 0 0
0 0 0 0 0 0 0 0 0 0 0 0 0 0 0 0 0 0 0 0 0 0 0 0 0 0 0 0 0 0 0 1 1 0 0 0 0 0 0 0 0 0 0 0 0 0 0 0 0
0 0 0 0 0 0 0 0 0 0 0 0 0 0 0 0 0 0 0 0 0 0 0 0 0 0 0 0 0 0 0 0 0 0 0 0 0 0 0 0 0 0 0 0 0 0 0 0 0
0 0 0 0 0 0 0 0 0 0 0 0 0 0 0 0 0 0 0 0 0 0 0 0 0 0 0 0 0 0 0 0 0 0 0 0 0 0 0 0 0 0 0 0 0 0 0 0 0
0 0 0 0 0 0 0 0 0 0 0 0 0 0 0 0 0 0 0 0 0 0 0 0 1 1 1 1 1 1 1 1 0 0 0 0 1 0 0 0 0 0 0 0 0 0 0 0 0
0 0 0 0 0 0 0 0 0 0 0 0 0 0 0 0 0 0 0 0 0 0 0 0 1 1 1 1 1 1 1 1 1 1 1 1 1 1 0 0 0 0 0 0 0 0 0 0 0
0 0 0 0 0 0 0 0 0 0 0 0 0 0 0 0 0 0 0 0 0 0 0 1 1 1 1 1 1 1 1 1 1 1 1 1 1 1 1 0 0 0 0 0 0 0 0 0 0
0 0 0 0 0 0 0 0 0 0 0 0 0 0 0 0 0 0 0 0 0 0 0 1 1 1 1 1 1 1 1 1 1 1 1 1 1 1 1 1 0 0 0 0 0 0 0 0 0
0 0 0 0 0 0 0 0 0 0 0 0 0 0 0 0 0 0 0 0 0 0 1 1 1 1 1 1 1 1 1 1 1 1 1 1 1 1 1 1 0 0 0 0 0 0 0 0 0
0 0 0 0 0 0 0 0 0 0 0 0 0 0 0 0 0 0 0 0 0 0 0 0 0 1 1 1 1 1 1 1 1 1 1 1 0 0 0 0 0 0 0 0 0 0 0 0 0
0 0 0 0 0 0 0 0 0 0 0 0 0 0 0 0 0 0 0 0 0 0 0 0 0 0 0 0 0 0 0 0 0 0 0 0 0 0 0 0 0 0 0 0 0 1 0 0 0
0 0 0 0 0 0 0 0 0 0 0 0 0 0 0 0 0 0 0 0 0 0 0 0 0 0 0 0 0 0 0 0 0 0 0 0 0 0 0 0 0 0 0 0 1 1 1 1 1
0 0 0 0 0 0 0 0 0 0 0 0 0 0 0 0 0 0 0 0 0 0 0 0 0 0 0 0 0 0 0 0 0 0 0 0 0 0 0 0 0 0 0 0 0 1 0 1 1
0 0 0 0 0 0 0 0 0 0 0 0 0 0 0 0 0 0 0 0 0 0 0 0 0 0 0 0 0 0 0 0 0 0 0 0 0 0 0 0 0 0 0 0 0 0 0 0 1
0 0 0 0 0 0 0 0 0 0 0 0 0 0 0 0 0 0 0 0 0 0 0 0 0 0 0 0 0 0 0 0 0 0 0 0 0 0 0 0 0 0 0 0 0 0 0 0 0
0 0 0 0 0 0 0 0 0 0 0 0 0 0 0 0 0 0 0 0 0 0 0 0 0 0 0 0 0 0 0 0 0 0 0 0 0 0 0 0 0 0 0 0 0 0 0 0 0
0 0 0 0 0 0 0 0 0 0 0 0 0 0 0 0 0 0 0 1 0 0 0 0 0 0 0 0 0 0 0 0 0 0 0 0 0 0 0 0 0 0 0 0 0 0 0 0 0
0 0 0 0 0 0 0 0 0 0 0 0 0 0 0 0 0 0 0 0 0 0 0 0 0 0 0 0 0 0 0 0 0 0 0 0 0 0 0 0 0 0 0 0 0 0 0 0 0
0 0 0 0 0 0 0 0 0 0 0 0 0 0 0 0 0 0 0 0 0 0 0 0 0 0 0 0 0 0 0 0 0 0 0 0 0 0 0 0 0 0 0 0 0 0 0 0 0
0 0 0 0 0 0 0 0 0 0 0 0 0 0 0 0 0 0 0 0 0 0 0 0 0 0 0 0 0 0 0 0 0 0 0 0 0 0 0 0 0 0 0 0 0 0 0 0 0
0 0 0 0 0 0 0 0 0 0 0 0 0 0 0 0 0 0 0 0 0 0 0 0 0 0 0 0 0 0 0 0 0 0 0 0 0 0 0 0 0 0 0 0 0 0 0 0 0
0 0 0 0 0 0 0 0 0 0 0 0 0 0 0 0 0 0 0 0 0 0 0 0 0 0 0 0 0 0 0 0 0 0 0 0 0 0 0 0 0 0 0 0 0 0 0 0 0
0 0 0 0 0 0 0 0 0 0 0 0 0 0 0 0 0 0 0 0 0 0 0 0 0 0 0 0 0 0 0 0 0 0 0 0 0 0 0 0 0 0 0 0 0 0 0 0 0
Wind_Speed
8 8 6 6 7 3 4 5 3 4 4 4 3 2 3 5 5 6 5 6 7 9 11 12 9 8 9 9 9 9 9 9 9 9 9 9 9 9 9 9 8 8 8 8 8 7 7 7 7
6 5 6 6 5 3 5 5 4 5 4 2 2 2 3 5 6 5 4 6 8 9 10 10 10 9 9 9 9 9 9 9 8 8 8 8 8 8 8 8 8 7 7 7 7 7 7 7 7
6 7 6 4 1 2 6 5 4 5 4 1 2 3 3 4 4 3 4 6 8 9 10 11 10 9 9 9 9 8 9 9 8 8 8 7 7 7 7 7 7 7 6 6 7 7 7 7 7
6 7 6 4 3 4 3 3 2 3 3 2 1 4 4 4 3 3 5 7 8 9 10 12 9 8 8 9 8 8 8 8 7 7 7 6 6 6 6 6 6 6 6 6 6 6 6 6 6
6 6 6 4 4 4 2 2 1 1 2 3 1 3 5 4 5 6 6 7 8 8 8 11 10 8 8 8 7 7 7 7 6 6 6 6 5 5 5 5 6 6 6 6 5 5 5 5 5
6 6 4 3 5 4 3 1 1 1 3 3 1 2 4 4 4 5 6 7 7 8 8 10 11 9 8 7 7 6 5 5 5 5 5 5 5 5 5 5 5 5 5 5 5 5 5 5 5
5 4 2 2 3 4 3 1 1 1 2 3 1 2 5 5 4 5 6 7 7 7 7 7 8 9 9 8 7 5 4 4 4 4 5 5 4 5 5 5 5 5 4 4 4 4 4 5 4
5 4 3 2 2 3 3 2 1 2 3 4 2 1 3 5 5 6 6 6 7 6 6 6 6 6 6 6 8 6 5 4 4 4 4 5 6 6 6 6 5 5 5 4 4 4 4 5 5
5 6 2 1 1 2 2 2 2 1 3 3 3 4 5 8 7 7 7 6 6 6 5 4 4 4 4 4 5 6 7 6 6 6 6 6 5 5 6 4 4 5 5 4 4 4 5 6 7
5 4 1 2 2 1 1 1 2 3 3 3 4 6 8 9 7 7 6 5 5 5 4 3 3 3 3 2 3 3 3 4 4 3 4 4 3 3 3 5 5 5 6 6 6 6 7 8 6
4 3 2 1 1 0 2 2 1 3 1 1 2 5 7 7 6 5 5 4 4 3 3 2 2 1 1 1 1 1 1 2 3 3 3 3 3 3 3 2 4 5 7 6 6 7 5 5 3
4 2 3 2 1 2 1 2 2 0 2 3 4 7 7 6 5 4 3 3 3 2 2 1 1 1 0 0 1 1 1 1 2 2 3 2 2 2 2 2 2 3 3 3 4 3 4 4 5
5 2 1 1 1 2 3 3 2 2 3 4 6 7 6 5 5 3 3 3 2 1 1 1 0 0 1 1 1 1 2 2 1 2 2 3 2 2 2 2 2 3 2 3 3 3 3 4 5
2 1 1 2 3 3 4 3 2 2 3 5 6 6 6 5 5 4 2 2 2 1 0 0 1 1 1 1 2 2 2 2 2 2 2 3 2 2 2 3 2 2 2 2 3 3 3 4 3
4 4 4 4 4 4 4 3 2 3 4 5 6 6 5 5 4 3 2 1 1 1 1 1 1 1 1 2 2 1 2 2 2 2 2 3 3 2 3 2 2 2 2 3 3 3 3 4 4
8 8 5 3 2 3 7 3 5 4 4 5 5 5 4 4 3 3 2 2 1 1 1 1 1 0 1 1 1 2 2 2 2 2 2 2 2 3 3 2 2 2 2 2 3 3 3 3 4
9 6 3 3 2 2 5 2 6 5 4 4 4 4 4 3 2 2 2 2 1 1 1 1 0 1 1 1 1 1 1 2 2 1 1 1 2 3 3 3 2 3 3 3 3 2 3 3 3
4 4 4 2 2 3 4 3 5 5 4 3 3 3 2 2 2 2 1 1 1 1 1 1 1 0 1 0 1 1 1 1 2 2 1 2 3 3 3 3 3 4 3 3 2 2 2 3 3
5 6 4 1 1 3 3 4 4 4 4 3 2 2 1 1 2 2 2 1 1 1 1 0 1 0 1 1 1 1 1 1 2 2 1 2 3 3 3 3 2 3 3 3 3 3 3 3 2
6 7 4 2 2 3 3 3 3 3 3 2 2 2 1 1 1 1 1 1 1 1 0 1 0 1 1 1 2 2 2 2 2 2 2 3 3 3 4 3 3 3 3 4 4 3 3 2 2
7 7 5 3 3 5 6 6 6 5 4 3 2 1 1 1 1 1 1 0 0 0 0 1 1 2 2 2 1 1 2 3 2 2 2 2 3 4 4 4 4 4 4 3 4 4 4 4 3
5 3 5 6 8 5 7 5 6 6 5 4 2 2 1 1 1 1 1 1 0 1 0 0 1 1 1 2 2 2 2 2 2 3 2 2 3 4 4 4 4 4 4 3 4 3 4 5 4
4 2 5 7 8 6 7 7 4 5 4 3 3 2 1 1 2 2 1 1 1 1 0 0 1 1 1 2 2 3 3 2 2 3 2 3 2 3 3 3 3 3 3 3 3 3 4 4 4
2 4 5 8 8 8 4 6 2 2 1 1 2 2 1 1 1 1 1 0 0 0 0 0 1 1 1 2 2 3 3 3 3 3 3 3 2 2 2 3 3 3 3 3 3 3 3 3 4
5 6 6 8 7 3 2 4 1 3 1 1 0 1 1 1 1 1 0 0 0 0 0 0 1 1 1 2 2 2 3 3 4 3 3 3 2 2 1 2 2 2 3 3 3 3 3 4 4
5 7 6 7 6 2 3 3 3 3 1 0 0 1 1 1 0 0 1 0 0 1 1 1 1 2 2 2 2 2 3 3 2 2 3 3 2 2 1 2 3 3 3 3 3 4 3 3 4
5 5 5 8 7 6 2 1 3 2 1 1 1 1 1 0 0 0 0 1 1 0 1 1 1 2 2 2 2 2 2 3 2 2 3 2 2 2 2 2 3 3 3 3 4 3 3 3 4
4 3 4 7 6 7 3 3 1 1 0 0 1 1 1 1 1 1 1 1 1 0 0 1 1 2 2 2 2 1 2 2 2 3 2 3 3 3 3 2 3 3 3 3 3 4 2 3 3
3 4 5 6 6 7 5 1 5 1 2 2 1 1 1 1 1 1 1 1 0 0 0 1 1 2 2 2 2 2 2 2 2 2 2 2 2 2 3 2 2 3 3 2 2 3 3 3 3
3 3 5 6 5 5 6 1 5 2 1 1 1 1 1 0 0 0 0 0 0 0 0 0 1 2 2 2 2 2 3 2 3 2 2 2 2 2 2 2 2 2 2 2 2 3 2 3 3
Wind_Direction
202 209 222 234 233 198 99 89 77 86 76 48 33 18 49 34 19 58 79 123 137 138 135 141 137 143 145 145 143 143 141 143 146 150 153 156 158 160 164 166 170 174 174 175 176 181 186 181 181
202 207 230 239 252 150 102 82 82 60 63 65 83 88 82 68 52 79 105 129 148 140 138 136 133 139 141 141 140 140 140 141 144 149 152 154 158 161 166 169 172 175 178 180 181 188 191 190 191
207 230 252 244 286 57 88 79 70 73 77 78 98 70 46 53 62 77 99 146 150 141 136 126 134 133 135 137 138 138 138 139 141 146 152 154 159 164 166 170 174 175 181 184 186 190 196 199 200
215 217 229 231 122 65 59 83 77 107 96 64 107 102 87 45 38 78 124 150 146 140 134 127 135 131 129 133 137 140 140 141 142 146 152 157 160 165 171 177 183 183 186 188 192 195 200 204 208
236 241 216 175 130 104 89 69 69 98 80 67 84 93 89 66 65 100 130 141 141 136 132 129 132 130 131 133 136 139 141 143 147 152 157 160 163 170 175 180 187 189 192 194 196 200 202 208 214
227 234 224 160 130 132 121 100 156 90 83 85 96 115 90 95 98 117 129 136 135 134 133 132 138 136 135 138 137 139 142 144 147 151 155 160 165 172 177 185 186 188 194 199 202 208 210 209 210
258 250 234 170 142 144 111 108 322 18 63 52 46 120 112 112 103 120 127 130 130 132 131 136 144 144 146 145 137 133 132 137 143 149 154 160 172 180 182 187 191 194 199 199 201 208 213 212 213
277 254 211 183 173 127 118 132 29 351 55 46 23 42 102 114 124 126 122 125 130 129 128 136 142 142 154 149 144 147 150 147 151 158 166 178 183 186 189 197 190 195 196 200 207 220 220 216 219
255 247 216 61 292 98 133 169 120 85 98 85 60 45 86 126 138 137 130 130 131 133 133 140 145 147 156 156 149 168 170 166 182 179 177 203 204 198 193 191 175 194 198 208 216 232 230 224 213
240 254 19 15 343 37 112 162 153 176 148 126 103 89 118 139 149 145 142 142 140 141 139 139 140 152 162 155 155 182 187 172 201 195 202 216 209 218 220 165 187 204 211 214 217 232 229 236 222
229 266 339 349 15 345 145 125 152 211 185 135 127 127 139 146 148 146 141 143 137 141 132 126 129 145 166 149 160 175 195 180 205 199 215 225 224 215 220 204 194 207 215 220 209 220 227 230 233
224 261 295 307 327 250 206 150 128 97 46 62 109 130 140 145 142 139 137 135 137 145 137 129 124 114 150 60 177 203 209 200 221 192 228 229 224 227 229 232 238 232 227 229 232 230 234 240 236
221 218 314 283 188 161 153 155 129 95 90 106 121 131 133 131 128 120 124 138 140 138 140 129 150 162 219 234 250 225 225 227 216 228 215 235 232 231 222 228 240 248 239 226 233 238 235 239 236
250 256 216 165 146 156 152 152 170 124 128 128 128 127 125 123 127 125 128 136 136 125 90 48 247 212 224 227 244 247 238 226 239 233 232 241 244 239 234 225 233 246 252 254 251 244 236 239 244
225 219 190 169 178 174 183 173 162 126 141 133 127 124 120 120 124 114 107 114 124 142 153 222 220 184 227 244 256 254 247 244 248 240 235 235 240 230 239 241 238 247 255 244 244 245 243 237 238
218 224 214 153 190 185 235 197 121 133 147 143 138 134 127 121 112 102 100 92 91 137 152 228 250 159 228 251 269 278 274 263 255 255 240 233 241 240 242 242 243 250 251 250 246 251 253 252 256
210 230 239 162 191 205 234 189 125 145 157 155 156 151 143 133 116 100 91 88 91 135 174 205 279 251 251 263 271 278 278 276 264 262 263 249 240 235 242 246 251 247 246 250 256 258 269 262 267
242 253 254 248 161 225 222 181 144 157 173 163 157 154 151 142 130 117 108 86 94 128 166 185 209 310 265 243 251 256 243 258 262 260 250 251 244 240 251 239 237 251 248 247 243 257 260 271 272
278 268 268 275 125 241 218 187 168 162 174 176 177 172 164 151 131 134 154 156 140 129 118 205 295 305 270 253 255 263 254 255 252 250 239 245 255 252 255 260 238 249 249 254 249 253 248 254 265
246 255 247 173 166 245 213 202 177 176 186 192 205 192 192 179 137 142 144 134 156 132 101 264 255 286 274 269 273 277 283 270 263 262 235 244 249 252 249 253 255 250 252 242 243 247 264 266 257
236 258 260 232 183 201 212 205 194 184 189 188 209 219 201 222 182 137 139 201 26 42 323 301 306 281 285 287 271 269 248 250 254 259 242 242 249 250 258 253 260 262 259 246 247 247 250 261 260
249 251 252 223 227 211 226 254 174 183 189 191 201 212 236 231 217 208 217 243 264 289 338 15 271 271 272 257 266 273 276 289 300 280 268 260 247 250 250 250 250 256 258 257 254 245 254 255 260
290 273 241 234 247 248 220 259 160 176 208 204 195 199 224 237 231 217 215 227 232 223 236 195 266 274 271 263 255 257 265 285 299 298 286 272 255 252 252 247 247 250 258 260 266 273 262 257 263
223 213 216 231 241 245 239 266 210 167 237 200 158 168 210 236 233 225 201 195 259 251 241 345 303 310 286 260 265 256 262 276 283 281 283 276 272 263 263 260 252 249 255 255 259 263 258 260 264
228 247 235 224 225 234 130 257 49 78 38 348 24 109 167 222 235 263 3 338 288 223 307 339 290 289 283 269 266 266 268 265 261 272 271 278 281 274 274 278 265 261 252 252 256 254 261 252 253
240 260 281 289 292 304 187 252 84 86 84 71 96 128 149 201 197 296 299 282 225 204 232 248 275 286 277 267 267 274 274 271 279 282 286 276 282 292 288 271 273 273 263 259 255 255 255 255 257
242 255 304 282 276 274 242 175 148 157 181 191 182 169 164 149 87 318 341 334 304 232 255 268 267 278 271 262 253 252 257 279 301 290 273 284 291 285 271 267 266 266 265 266 266 272 267 264 258
293 280 251 265 281 277 249 243 279 137 292 252 242 197 126 98 64 23 352 328 312 259 269 312 293 282 278 275 272 261 260 269 280 285 296 297 296 297 289 281 281 279 272 261 264 265 269 267 266
211 226 267 275 290 292 292 2 52 26 328 308 275 193 149 99 18 342 325 1 47 68 292 265 269 266 269 276 273 275 272 267 269 274 284 291 295 299 294 286 281 284 287 281 273 280 273 266 265
272 278 268 273 273 269 286 352 83 41 10 318 281 151 142 138 252 287 24 71 80 53 280 263 266 265 268 262 254 260 269 266 268 276 287 294 296 294 286 276 276 281 289 292 275 273 279 273 267